Location: C�mpuri de-Sus
(45.9500°N, 22.5500°E)
Time: 13:40:26
(UTC+00:00)

SL-16 R/B - Pass Details

Date: 24 October 2021
Orbit: 842 x 846 km, 71.0° (Epoch: 07 December)

Event Time Altitude Azimuth Distance (km) Brightness Sun altitude
Rises 16:08:36 0° 187° (S) 3,385 5.6 -7.7°
Reaches altitude 10° 16:11:05 10° 182° (S) 2,455 4.8 -8.1°
Maximum altitude 16:16:29 49° 109° (ESE) 1,083 2.4 -9.0°
Drops below altitude 10° 16:21:55 10° 36° (NE) 2,474 4.2 -10.0°
Sets 16:24:26 0° 31° (NNE) 3,414 5.0 -10.4°
